Location: São Paulo
(23.5507°S, 46.6334°W)
Time: 15:25:41
(UTC-03:00)

Courier 1B Rocket - All Passes

Search period start: 16 February 2026 00:00
Search period end: 26 February 2026 00:00
Orbit: 920 x 1201 km, 28.2° (Epoch: 16 February)

Date Brightness Start Highest point End Pass type
(mag) Time Alt. Az. Time Alt. Az. Time Alt. Az.
16 Feb - 05:08:31 10° NNW 05:15:21 33° NNE 05:22:08 10° E visible
16 Feb - 07:01:05 10° WNW 07:08:57 80° NNE 07:16:33 10° ESE daylight
16 Feb - 08:55:22 10° W 09:03:02 64° S 09:10:15 10° ESE daylight
16 Feb - 10:49:51 10° WSW 10:57:16 65° S 11:04:08 10° E daylight
16 Feb - 12:43:59 10° WSW 12:51:04 73° NNW 12:57:36 10° ENE daylight
16 Feb - 14:38:52 10° W 14:44:09 25° NNW 14:49:13 10° NNE daylight
17 Feb - 04:08:09 10° NNW 04:13:58 23° NNE 04:19:50 10° E visible
17 Feb - 05:59:42 10° NW 06:07:26 63° NNE 06:15:04 10° ESE daylight
17 Feb - 07:53:33 10° W 08:01:23 72° SSW 08:08:53 10° ESE daylight
17 Feb - 09:48:07 10° WSW 09:55:40 61° S 10:02:44 10° E daylight
17 Feb - 11:42:20 10° WSW 11:49:43 89° SSE 11:56:31 10° ENE daylight
17 Feb - 13:36:45 10° W 13:43:03 37° NNW 13:48:59 10° NE daylight
18 Feb - 03:08:35 10° N 03:12:38 15° NNE 03:16:43 10° ENE visible
18 Feb - 04:58:36 10° NW 05:05:58 47° NNE 05:13:23 10° E visible
18 Feb - 06:51:51 10° WNW 06:59:46 84° SSW 07:07:28 10° ESE daylight
18 Feb - 08:46:19 10° W 08:54:01 61° S 09:01:18 10° ESE daylight
18 Feb - 10:40:41 10° WSW 10:48:14 75° SSE 10:55:15 10° E daylight
18 Feb - 12:34:53 10° W 12:41:52 53° NNW 12:48:20 10° NE daylight
18 Feb - 14:30:55 10° WNW 14:34:51 16° NNW 14:38:39 10° N daylight
19 Feb - 03:57:50 10° NNW 04:04:34 34° NNE 04:11:26 10° E visible
19 Feb - 05:50:19 10° WNW 05:58:10 81° NNE 06:05:59 10° ESE daylight
19 Feb - 07:44:30 10° W 07:52:19 65° S 07:59:50 10° ESE daylight
19 Feb - 09:38:59 10° WSW 09:46:40 66° S 09:53:52 10° E daylight
19 Feb - 11:33:09 10° WSW 11:40:34 72° NNW 11:47:26 10° ENE daylight
19 Feb - 13:28:08 10° W 13:33:45 25° NNW 13:39:03 10° NNE daylight
20 Feb - 02:57:33 10° NNW 03:03:14 23° NNE 03:09:04 10° E visible
20 Feb - 04:49:00 10° NW 04:56:38 63° NNE 05:04:24 10° ESE visible
20 Feb - 06:42:45 10° W 06:50:37 72° S 06:58:22 10° ESE daylight
20 Feb - 08:37:14 10° WSW 08:45:00 62° S 08:52:23 10° E daylight
20 Feb - 10:31:28 10° WSW 10:39:09 89° SSE 10:46:17 10° ENE daylight
20 Feb - 12:25:57 10° W 12:32:35 38° NNW 12:38:47 10° NE daylight
21 Feb - 01:58:08 10° N 02:01:55 15° NE 02:05:50 10° ENE visible
21 Feb - 03:47:58 10° NW 03:55:11 47° NNE 04:02:38 10° E visible
21 Feb - 05:41:07 10° WNW 05:48:57 83° SSW 05:56:51 10° ESE daylight
21 Feb - 07:35:28 10° W 07:43:16 62° S 07:50:51 10° ESE daylight
21 Feb - 09:29:47 10° WSW 09:37:36 76° SSE 09:44:57 10° E daylight
21 Feb - 11:24:02 10° W 11:31:20 54° NNW 11:38:07 10° NE daylight
21 Feb - 13:20:07 10° WNW 13:24:24 17° NNW 13:28:32 10° N daylight
22 Feb - 02:47:19 10° NNW 02:53:49 33° NNE 03:00:37 10° E visible
22 Feb - 04:39:40 10° WNW 04:47:21 81° NNE 04:55:16 10° ESE visible
22 Feb - 06:33:44 10° W 06:41:32 65° S 06:49:17 10° ESE daylight
22 Feb - 08:28:07 10° WSW 08:35:57 67° S 08:43:28 10° E daylight
22 Feb - 10:22:16 10° WSW 10:29:58 72° NNW 10:37:09 10° ENE daylight
22 Feb - 12:17:18 10° W 12:23:15 26° NNW 12:28:51 10° NNE daylight
23 Feb - 01:47:07 10° NNW 01:52:32 23° NNE 01:58:11 10° E visible
23 Feb - 03:38:27 10° NW 03:45:51 64° NNE 03:53:36 10° ESE visible
23 Feb - 05:32:04 10° W 05:39:49 72° S 05:47:42 10° ESE visible
23 Feb - 07:26:25 10° WSW 07:34:14 63° S 07:41:53 10° E daylight
23 Feb - 09:20:35 10° WSW 09:28:28 90° N 09:35:56 10° ENE daylight
23 Feb - 11:15:05 10° W 11:22:00 39° NNW 11:28:32 10° NE daylight
23 Feb - 13:14:41 10° NW 13:15:03 10° NW 13:15:25 10° NNW daylight
24 Feb - 00:47:52 10° N 00:51:19 14° NE 00:54:52 10° ENE night (unlit)
24 Feb - 02:37:31 10° NW 02:44:26 47° NNE 02:51:47 10° E visible
24 Feb - 04:30:32 10° WNW 04:38:10 83° SSW 04:46:05 10° ESE visible
24 Feb - 06:24:44 10° W 06:32:29 62° S 06:40:15 10° E daylight
24 Feb - 08:18:57 10° WSW 08:26:51 77° SSE 08:34:30 10° E daylight
24 Feb - 10:13:09 10° W 10:20:41 54° NNW 10:27:47 10° NE daylight
24 Feb - 12:09:12 10° WNW 12:13:52 18° NNW 12:18:20 10° N daylight
25 Feb - 01:36:56 10° NNW 01:43:09 33° NNE 01:49:44 10° E visible
25 Feb - 03:29:10 10° WNW 03:36:36 82° NNE 03:44:26 10° ESE visible
25 Feb - 05:23:05 10° W 05:30:44 64° S 05:38:34 10° ESE visible
25 Feb - 07:17:19 10° WSW 07:25:10 68° S 07:32:55 10° E daylight
25 Feb - 09:11:24 10° WSW 09:19:14 72° NNW 09:26:44 10° ENE daylight
25 Feb - 11:06:25 10° W 11:12:38 27° NNW 11:18:34 10° NNE daylight
